Meteo Giornale » Osservazioni meteo Italia » Treviso-S Angelo

ore: 07:50 - Osservazioni Meteo Treviso-S Angelo
Lat. 45° 39' N Lon. 12° 11' E Alt. 18 metri s.l.m.

foschia Europe/Rome

13 °C

Foschia

Temp. 24 Ore

10 °C

22 °C

Sud/Sud-Est

7.4 Km/h

Dew point 11 °C

Umidità 87 %

Visibilità  4 Km

Il sole sorge alle ore 06:00

Il sole tramonta alle ore 18:33

Data e Ora Cielo e Fenomeni T °C DP °C Um. % Pres. hPa Vis. km Vento km/h
Oggi h: 07:50 foschia Foschia 13 11 87 1016 4 S/SE 7.4
Oggi h: 07:20 foschia Foschia 12 10 87 1016 4 S/SO 9.3
Oggi h: 06:50 foschia Foschia 10 9 93 1016 4 N 5.5
Oggi h: 06:20 foschia Foschia 11 9 87 1016 5 N 5.5
Oggi h: 05:50 foschia Foschia 10 9 93 1016 5 N 1.8
Oggi h: 05:20 foschia Foschia 10 9 93 1016 4 N 5.5
Oggi h: 04:50 foschia Foschia 10 9 93 1016 3 N 5.5
Oggi h: 04:20 foschia Foschia 10 9 93 1016 2 N 5.5
Oggi h: 03:50 foschia Foschia 11 10 93 1016 4 NO 7.4
Oggi h: 03:20 foschia Foschia 10 10 100 1017 3 SO 7.4
Oggi h: 03:50 foschia Foschia 10 9 93 1017 5 N 5.5
Oggi h: 03:20 molto_nuvoloso Molto Nuvoloso 10 9 93 1017 6 N 3.7
Oggi h: 01:50 foschia Foschia 10 9 93 1017 4 N 3.7
Oggi h: 01:20 foschia Foschia 10 9 93 1017 5 N 1.8
Oggi h: 00:50 sereno Sereno 10 9 93 1017 6 N 1.8
Oggi h: 00:20 foschia Foschia 10 9 93 1017 5 N 5.5
Ieri h: 23:50 foschia Foschia 10 9 93 1017 5 N 3.7
Ieri h: 23:20 foschia Foschia 11 9 87 1017 5 N 3.7
Ieri h: 22:50 sereno Sereno 12 9 81 1017 10 N 3.7
Ieri h: 22:20 sereno Sereno 12 10 87 1017 10 N 1.8
Ieri h: 21:50 sereno Sereno 12 10 87 1017 10 N 1.8
Ieri h: 20:50 sereno Sereno 13 10 81 1017 10 N 3.7
Ieri h: 20:20 sereno Sereno 14 10 76 1017 10 N 3.7
Ieri h: 19:50 sereno Sereno 15 10 72 1017 10 N 5.5
Ieri h: 19:20 sereno Sereno 15 10 72 1017 10 N 5.5
Ieri h: 18:50 sereno Sereno 17 10 63 1017 10 E 9.3
Ieri h: 18:20 sereno Sereno 19 9 52 1017 10 E/SE 9.3
Ieri h: 17:50 sereno Sereno 19 9 52 1017 10 E/SE 7.4
Ieri h: 17:20 sereno Sereno 20 9 49 1017 10 E/SE 11.1
Ieri h: 16:50 sereno Sereno 21 9 46 1017 10 E/SE 13
Ieri h: 16:20 sereno Sereno 22 9 43 1018 10 E/SE 11.1
Ieri h: 15:50 sereno Sereno 22 8 40 1018 10 E 9.3
Ieri h: 15:20 sereno Sereno 22 8 40 1018 10 E 9.3
Ieri h: 14:50 sereno Sereno 22 7 37 1019 10 E 13
Ieri h: 14:20 sereno Sereno 22 7 37 1019 10 E 13
Ieri h: 13:50 sereno Sereno 22 9 43 1020 10 N 5.5
Ieri h: 13:20 sereno Sereno 21 9 46 1020 10 E/NE 9.3
Ieri h: 12:50 sereno Sereno 21 8 43 1021 10 E 7.4
Ieri h: 12:20 sereno Sereno 21 8 43 1021 10 E/NE 7.4
Ieri h: 11:50 sereno Sereno 20 9 49 1022 10 E 9.3
Ieri h: 11:20 sereno Sereno 19 9 52 1022 10 E 11.1
Ieri h: 10:50 sereno Sereno 19 9 52 1022 10 E/NE 7.4
Ieri h: 10:20 sereno Sereno 18 9 55 1022 10 E/NE 13
Ieri h: 09:50 sereno Sereno 17 9 59 1022 10 E/NE 11.1
Ieri h: 09:20 sereno Sereno 17 8 55 1022 10 E/NE 16.7
Ieri h: 08:50 sereno Sereno 16 9 63 1022 10 NE 11.1